Flag for Germany Weather past 2 weeks in Wertheim, Baden-Württemberg, Germany

Now
66 °F

Clear.


Feels Like: 66 °F
Forecast: 58 / 83 °F
Wind: No wind

Location: Wuerzburg

Current Time: Aug 4, 2015 at 7:23:43 AM

Latest Report: Aug 4, 2015 at 5:00 AM


Visibility: 19 mi

Pressure: 29.96 "Hg

Humidity: 68%

Dew point: 55 °F

Location of WertheimLocation

Historic Weather in Wertheim — Graph

°F

Wertheim temperature yesterday

Maximum temperature yesterday: 90 °F (at 3:00 PM)
Minimum temperature yesterday: 57 °F (at 6:00 AM)
Average temperature yesterday: 76 °F

Past Weeks' High & Low Weather Summary

 TemperatureHumidityPressure
High94 °F (Jul 22, 2:00 PM)94% (Jul 20, 5:00 AM)30.14 "Hg (Jul 20, 5:00 AM)
Low49 °F (Jul 30, 5:00 AM)21% (Aug 2, 5:00 PM)29.68 "Hg (Jul 25, 5:00 AM)
Average69 °F57%29.93 "Hg
* Reported Jul 20 5:00 AM — Aug 4 5:00 AM, Wertheim, Weather by CustomWeather, © 2015

Note: Actual official high and low records may vary slightly from our data, if they occured in-between our weather recording intervals... More about our weather records

Advertising

Wertheim weather history for previous 24 hours

 ConditionsComfort  
Time TempWeatherWind HumidityBarometerVisibility
5:00 AM
Tue, Aug 4
66 °FClear.No wind68%29.96 "Hg19 mi
4:00 AM67 °FClear.1 mph64%29.97 "Hg22 mi
3:00 AM68 °FClear.No wind58%29.98 "Hg25 mi
2:00 AM70 °FPassing clouds.1 mph55%29.98 "Hg25 mi
1:00 AM71 °FPassing clouds.1 mph51%29.98 "Hg28 mi
11:00 PM
Mon, Aug 3
77 °FClear.3 mph40%29.98 "Hg31 mi
10:00 PM79 °FPassing clouds.3 mph36%29.97 "Hg31 mi
9:00 PM83 °FPassing clouds.3 mph31%29.96 "Hg37 mi
8:00 PM87 °FSunny.2 mph27%29.95 "Hg34 mi
7:00 PM88 °FPassing clouds.5 mph25%29.95 "Hg34 mi
6:00 PM89 °FPassing clouds.5 mph24%29.96 "Hg34 mi
5:00 PM89 °FPassing clouds.3 mph24%29.97 "Hg37 mi
4:00 PM90 °FPassing clouds.5 mph25%29.99 "Hg37 mi
3:00 PM90 °FPassing clouds.3 mph25%30.00 "Hg34 mi
2:00 PM88 °FPassing clouds.2 mph26%30.01 "Hg28 mi
1:00 PM87 °FPassing clouds.3 mph30%30.03 "Hg28 mi
12:00 PM82 °FPassing clouds.3 mph34%30.06 "Hg28 mi
11:00 AM80 °FPassing clouds.2 mph39%30.07 "Hg25 mi
10:00 AM74 °FPassing clouds.1 mph49%30.09 "Hg25 mi
9:00 AM68 °FPassing clouds.1 mph59%30.09 "Hg19 mi
8:00 AM63 °FScattered clouds.1 mph67%30.10 "Hg19 mi
7:00 AM60 °FPassing clouds.No wind69%30.09 "Hg25 mi
Weather by CustomWeather, © 2015

See weather overviewHow to use our weather pages